Weather History for Rush City, MN

Change the Weather History Date:

Monday, March 4, 2013

  Actual Average (KCBG) Record (KCBG)
Temperature  
Mean Temperature 24 °F -  
Max Temperature 28 °F 33 °F 58 °F (1968)
Min Temperature 20 °F 13 °F -8 °F (1978)
Degree Days  
Heating Degree Days 41    
Moisture  
Dew Point 12 °F    
Average Humidity 63    
Maximum Humidity 93    
Minimum Humidity 38    
Precipitation  
Precipitation 0.00 in - - ()
Sea Level Pressure  
Sea Level Pressure 30.01 in    
Wind  
Wind Speed 6 mph (East)    
Max Wind Speed 14 mph    
Max Gust Speed 21 mph    
Visibility 9 miles    
Events Snow    
Averages and records for this station are not official NWS values.
T = Trace of Precipitation, MM = Missing Value Source: NWS Daily Summary

Daily Weather History Graph

Daily Weather History Graph

Search for Another Location

Airport:

Trip Planner

Search our weather history database for the weather conditions in past years. The results will help you decide how hot, cold, wet, or windy it might be!

Date:

Astronomy

Mar. 04, 2013 Rise Set
Actual Time 6:44 AM CST 6:03 PM CST
Civil Twilight 6:14 AM CST 6:32 PM CST
Nautical Twilight 5:40 AM CST 7:07 PM CST
Astronomical Twilight 5:05 AM CST 7:41 PM CST
Moon 1:07 AM CST (3/4) 10:32 AM CST (3/4)
Length of Visible Light 12h 18m
Length of Day
11h 18m
Waning Gibbous, 52% of the Moon is Illuminated
Mar 4
Waning Gibbous
Mar 4
Last Quarter
Mar 11
New
Mar 19
First Quarter
Mar 27
Full

Hourly Weather History & Observations

Time (CST) Temp. Windchill Dew Point Humidity Pressure Visibility Wind Dir Wind Speed Gust Speed Precip Events Conditions
12:15 AM 21.7 °F 15.5 °F -0.2 °F 38% 30.02 in 10.0 mi East 4.6 mph - N/A   Mostly Cloudy
12:35 AM 21.0 °F 13.4 °F -0.4 °F 39% 30.02 in 10.0 mi ENE 5.8 mph - N/A   Scattered Clouds
12:55 AM 20.1 °F 12.3 °F 0.3 °F 42% 30.02 in 10.0 mi ENE 5.8 mph - N/A   Scattered Clouds
1:15 AM 20.1 °F 12.3 °F -0.0 °F 41% 30.02 in 10.0 mi ENE 5.8 mph - N/A   Overcast
1:35 AM 20.3 °F 12.5 °F -0.2 °F 41% 30.02 in 10.0 mi East 5.8 mph - N/A   Overcast
1:55 AM 20.3 °F 12.5 °F 0.3 °F 42% 30.02 in 10.0 mi East 5.8 mph - N/A   Overcast
2:15 AM 20.3 °F 13.8 °F 1.0 °F 43% 30.02 in 10.0 mi East 4.6 mph - N/A   Overcast
2:55 AM 20.8 °F 12.1 °F 1.6 °F 43% 30.01 in 10.0 mi ENE 6.9 mph - N/A   Overcast
3:14 AM 20.8 °F 13.2 °F 1.8 °F 44% 30.00 in 10.0 mi ENE 5.8 mph - N/A   Overcast
3:35 AM 20.8 °F 11.2 °F 1.6 °F 43% 30.00 in 10.0 mi ENE 8.1 mph - N/A   Overcast
3:55 AM 20.8 °F 16.0 °F 1.8 °F 44% 30.00 in 10.0 mi East 3.5 mph - N/A   Overcast
4:14 AM 20.8 °F 14.4 °F 2.1 °F 44% 29.99 in 10.0 mi ENE 4.6 mph - N/A   Overcast
4:35 AM 21.0 °F 13.4 °F 2.8 °F 45% 29.99 in 10.0 mi East 5.8 mph - N/A   Overcast
4:55 AM 21.0 °F 13.4 °F 3.0 °F 46% 29.99 in 10.0 mi ENE 5.8 mph - N/A   Overcast
5:15 AM 21.2 °F 13.6 °F 3.2 °F 46% 29.99 in 10.0 mi ENE 5.8 mph - N/A   Overcast
5:35 AM 20.8 °F 13.2 °F 3.9 °F 48% 29.99 in 10.0 mi ENE 5.8 mph - N/A   Overcast
5:55 AM 20.8 °F 12.1 °F 3.9 °F 48% 29.99 in 10.0 mi ENE 6.9 mph - N/A   Overcast
6:15 AM 20.8 °F 13.2 °F 4.6 °F 50% 29.99 in 10.0 mi ENE 5.8 mph - N/A   Overcast
6:35 AM 21.2 °F 13.6 °F 4.8 °F 49% 29.99 in 10.0 mi ENE 5.8 mph - N/A   Overcast
6:55 AM 21.2 °F 14.9 °F 5.7 °F 51% 29.99 in 10.0 mi East 4.6 mph - N/A   Overcast
7:15 AM 22.1 °F 14.7 °F 6.3 °F 51% 30.00 in 10.0 mi East 5.8 mph - N/A   Overcast
7:35 AM 22.6 °F 18.0 °F 6.8 °F 51% 30.00 in 10.0 mi East 3.5 mph - N/A   Overcast
7:55 AM 23.0 °F 18.4 °F 7.5 °F 52% 30.01 in 10.0 mi ENE 3.5 mph - N/A   Overcast
8:15 AM 24.3 °F 18.4 °F 6.8 °F 47% 30.01 in 10.0 mi East 4.6 mph - N/A   Overcast
8:35 AM 25.3 °F 15.3 °F 5.2 °F 42% 30.01 in 10.0 mi East 10.4 mph - N/A   Overcast
8:55 AM 25.7 °F 18.0 °F 6.1 °F 43% 30.01 in 10.0 mi ESE 6.9 mph - N/A   Overcast
9:15 AM 25.7 °F 15.7 °F 5.5 °F 42% 30.01 in 10.0 mi East 10.4 mph 16.1 mph N/A   Overcast
9:35 AM 25.7 °F 15.7 °F 9.1 °F 50% 30.01 in 10.0 mi East 10.4 mph 17.3 mph N/A   Overcast
9:55 AM 25.7 °F 16.4 °F 9.9 °F 51% 30.01 in 10.0 mi ESE 9.2 mph 19.6 mph N/A   Overcast
10:15 AM 25.3 °F 14.1 °F 12.7 °F 59% 30.01 in 10.0 mi East 12.7 mph 16.1 mph N/A   Overcast
10:35 AM 24.8 °F 13.4 °F 14.5 °F 65% 30.01 in 10.0 mi East 12.7 mph 16.1 mph N/A   Overcast
10:55 AM 24.6 °F 14.4 °F 14.9 °F 67% 30.01 in 10.0 mi East 10.4 mph - N/A   Overcast
11:15 AM 25.0 °F 15.5 °F 14.7 °F 65% 30.01 in 10.0 mi East 9.2 mph 16.1 mph N/A   Overcast
11:35 AM 26.1 °F 17.6 °F 13.1 °F 58% 30.01 in 10.0 mi East 8.1 mph - N/A   Overcast
11:55 AM 27.5 °F 18.6 °F 10.8 °F 49% 30.00 in 10.0 mi ESE 9.2 mph 17.3 mph N/A   Overcast
12:15 PM 28.2 °F 17.2 °F 11.7 °F 50% 29.99 in 10.0 mi ESE 13.8 mph 20.7 mph N/A   Overcast
12:55 PM 26.6 °F 15.2 °F 17.2 °F 68% 29.99 in 10.0 mi ESE 13.8 mph - N/A   Overcast
1:15 PM 26.8 °F 17.1 °F 15.8 °F 63% 29.98 in 10.0 mi ESE 10.4 mph 16.1 mph N/A   Overcast
1:35 PM 27.5 °F 18.0 °F 14.7 °F 59% 29.98 in 10.0 mi East 10.4 mph - N/A   Overcast
1:55 PM 27.5 °F 18.0 °F 14.9 °F 59% 29.98 in 10.0 mi ESE 10.4 mph 18.4 mph N/A   Overcast
2:15 PM 27.5 °F 18.0 °F 16.7 °F 64% 29.98 in 10.0 mi ESE 10.4 mph 16.1 mph N/A   Overcast
2:35 PM 27.5 °F 18.0 °F 17.2 °F 65% 29.97 in 10.0 mi East 10.4 mph - N/A   Overcast
2:55 PM 27.5 °F 17.4 °F 17.6 °F 66% 29.98 in 10.0 mi East 11.5 mph 18.4 mph N/A   Overcast
3:15 PM 27.3 °F 19.1 °F 17.8 °F 67% 29.98 in 10.0 mi ESE 8.1 mph - N/A   Overcast
3:35 PM 27.0 °F 18.0 °F 18.3 °F 70% 29.99 in 10.0 mi ESE 9.2 mph - N/A   Overcast
3:55 PM 26.4 °F 17.3 °F 19.0 °F 74% 30.00 in 10.0 mi ESE 9.2 mph - N/A   Overcast
4:15 PM 26.1 °F 17.6 °F 19.9 °F 78% 29.99 in 10.0 mi ESE 8.1 mph - N/A   Overcast
4:35 PM 25.7 °F 16.4 °F 20.3 °F 80% 29.99 in 10.0 mi East 9.2 mph - N/A   Overcast
4:54 PM 25.7 °F 18.0 °F 20.7 °F 81% 30.00 in 10.0 mi ESE 6.9 mph - N/A   Overcast
5:15 PM 25.7 °F 18.0 °F 20.7 °F 81% 30.00 in 10.0 mi ESE 6.9 mph - N/A   Overcast
5:35 PM 25.7 °F 18.0 °F 20.7 °F 81% 30.00 in 10.0 mi ESE 6.9 mph - N/A   Overcast
5:55 PM 25.3 °F 18.5 °F 20.8 °F 83% 30.00 in 10.0 mi ESE 5.8 mph - N/A   Overcast
6:15 PM 25.3 °F 21.1 °F 20.8 °F 83% 30.01 in 10.0 mi ESE 3.5 mph - N/A   Overcast
6:35 PM 25.3 °F 19.7 °F 20.7 °F 82% 30.01 in 10.0 mi ESE 4.6 mph - N/A   Overcast
6:54 PM 25.0 °F 20.7 °F 20.7 °F 84% 30.01 in 10.0 mi ESE 3.5 mph - N/A   Overcast
7:15 PM 25.2 °F 19.5 °F 20.3 °F 82% 30.01 in 10.0 mi ESE 4.6 mph - N/A   Overcast
7:35 PM 25.2 °F 19.5 °F 20.3 °F 82% 30.01 in 10.0 mi ESE 4.6 mph - N/A   Overcast
7:55 PM 25.2 °F - 20.3 °F 82% 30.02 in 10.0 mi Calm Calm - N/A   Overcast
8:35 PM 24.6 °F - 21.2 °F 87% 30.04 in 7.0 mi Calm Calm - N/A   Overcast
8:55 PM 24.4 °F - 21.2 °F 87% 30.04 in 7.0 mi Calm Calm - N/A   Overcast
9:15 PM 24.4 °F - 21.7 °F 89% 30.05 in 7.0 mi Calm Calm - N/A   Overcast
9:35 PM 24.3 °F - 21.7 °F 90% 30.05 in 5.0 mi Calm Calm - N/A   Overcast
9:54 PM 24.1 °F 19.7 °F 21.9 °F 91% 30.05 in 5.0 mi East 3.5 mph - N/A   Overcast
10:15 PM 24.3 °F 19.9 °F 22.1 °F 91% 30.05 in 5.0 mi East 3.5 mph - N/A   Overcast
10:35 PM 24.3 °F 18.4 °F 22.1 °F 91% 30.04 in 4.0 mi East 4.6 mph - N/A   Overcast
10:54 PM 24.1 °F 18.2 °F 22.1 °F 92% 30.04 in 5.0 mi East 4.6 mph - N/A   Overcast
11:15 PM 23.9 °F 18.0 °F 22.1 °F 93% 30.04 in 10.0 mi East 4.6 mph - N/A   Overcast
11:35 PM 23.9 °F 19.5 °F 22.1 °F 93% 30.04 in 10.0 mi East 3.5 mph - N/A Snow Light Snow
11:54 PM 23.9 °F 18.0 °F 22.1 °F 93% 30.03 in 7.0 mi East 4.6 mph - N/A   Overcast